Home > Weather > Dresden > Past weeks

Flag for Germany Weather for the Past 2 Weeks in Dresden, Saxony, Germany

Now
46 °F

Broken clouds.


Feels Like: 43 °F
Forecast: 37 / 44 °F
Wind: 7 mph from South

Location: Dresden-Klotzsche

Current Time: Feb 14, 2016 at 12:18:19 PM

Latest Report: Feb 14, 2016 at 11:50 AM


Visibility: N/A

Pressure: 29.15 "Hg

Humidity: 76%

Dew point: 39 °F

Location of DresdenLocation

Historic Weather in Dresden — Graph

°F

Dresden Temperature Yesterday

Maximum temperature yesterday: 41 °F (at 2:20 PM)
Minimum temperature yesterday: 28 °F (at 6:20 AM)
Average temperature yesterday: 35 °F

High & Low Weather Summary for the Past Weeks

 TemperatureHumidityPressure
High55 °F (Feb 2, 12:50 PM)100% (Feb 1, 3:20 AM)30.30 "Hg (Feb 1, 3:20 AM)
Low28 °F (Feb 13, 6:20 AM)53% (Feb 10, 1:50 PM)29.09 "Hg (Feb 9, 10:20 PM)
Average41 °F76%29.72 "Hg
* Reported Jan 30 11:20 AM — Feb 14 11:20 AM, Dresden, Weather by CustomWeather, © 2016

Note: Actual official high and low records may vary slightly from our data, if they occured in-between our weather recording intervals... More about our weather records

Advertising

Dresden Weather History for the Previous 24 Hours

 ConditionsComfort  
Time TempWeatherWind HumidityBarometerVisibility
11:20 AM
Sun, Feb 14
45 °FPartly sunny.9 mph81%29.15 "HgN/A
10:50 AM43 °FPartly sunny.9 mph87%29.15 "HgN/A
10:20 AM43 °FPartly sunny.9 mph87%29.15 "HgN/A
9:50 AM41 °FPartly sunny.8 mph93%29.15 "HgN/A
9:20 AM41 °FLight rain. Partly sunny.10 mph87%29.12 "HgN/A
8:20 AM39 °FLight rain. Partly sunny.9 mph87%29.12 "HgN/A
7:50 AM37 °FLight rain. Broken clouds.10 mph93%29.12 "HgN/A
7:20 AM37 °FLight rain. Partly sunny.10 mph93%29.12 "HgN/A
6:50 AM39 °FLight rain. Passing clouds.10 mph87%29.12 "HgN/A
6:20 AM39 °FPassing clouds.10 mph81%29.12 "HgN/A
5:50 AM39 °FPassing clouds.12 mph81%29.12 "HgN/A
5:20 AM39 °FLight rain. Partly cloudy.12 mph81%29.12 "HgN/A
4:50 AM39 °FClear.10 mph81%29.12 "Hg10 mi
4:20 AM37 °FClear.9 mph87%29.12 "Hg10 mi
3:50 AM39 °FLight rain. Overcast.10 mph81%29.15 "HgN/A
3:20 AM37 °FLight rain. Overcast.10 mph87%29.15 "HgN/A
2:20 AM39 °FClear.9 mph75%29.15 "Hg10 mi
1:50 AM39 °FClear.7 mph75%29.15 "Hg10 mi
1:20 AM39 °FOvercast.8 mph75%29.18 "HgN/A
12:50 AM39 °FLight rain. Overcast.7 mph75%29.18 "HgN/A
12:20 AM37 °FClear.6 mph81%29.18 "Hg10 mi
11:50 PM
Sat, Feb 13
37 °FLight rain. Clear.3 mph81%29.21 "HgN/A
11:20 PM37 °FClear.3 mph75%29.21 "Hg10 mi
10:20 PM36 °FClear.7 mph75%29.24 "Hg10 mi
9:50 PM36 °FClear.7 mph75%29.24 "Hg10 mi
9:20 PM37 °FClear.6 mph75%29.24 "Hg10 mi
8:50 PM37 °FClear.6 mph75%29.24 "Hg10 mi
8:20 PM37 °FClear.8 mph75%29.24 "Hg10 mi
7:50 PM37 °FClear.7 mph75%29.24 "Hg10 mi
7:20 PM37 °FClear.6 mph75%29.27 "Hg10 mi
6:50 PM37 °FClear.6 mph75%29.27 "Hg10 mi
6:20 PM37 °FClear.6 mph75%29.27 "Hg10 mi
5:50 PM37 °FPartly cloudy.7 mph70%29.30 "HgN/A
5:20 PM37 °FPassing clouds.5 mph75%29.30 "HgN/A
4:50 PM39 °FBroken clouds.6 mph65%29.30 "HgN/A
4:20 PM39 °FPartly sunny.9 mph65%29.30 "HgN/A
3:50 PM39 °FPartly sunny.9 mph65%29.30 "HgN/A
3:20 PM39 °FPartly sunny.12 mph70%29.30 "HgN/A
2:50 PM39 °FPartly sunny.10 mph70%29.33 "HgN/A
2:20 PM41 °FPartly sunny.9 mph66%29.33 "HgN/A
1:50 PM39 °FScattered clouds.10 mph70%29.33 "HgN/A
1:20 PM39 °FPartly sunny.9 mph70%29.33 "HgN/A
12:50 PM39 °FPartly sunny.10 mph70%29.36 "HgN/A
12:20 PM39 °FScattered clouds.8 mph70%29.36 "HgN/A
Weather by CustomWeather, © 2016

See weather overviewHow to use our weather pages